This is the latest recevied weather packets stored in our database for station/object KD4KKF. If no packets are shown the sender has not sent any weather packets the latest 10 day(s).
| Time | Temp. | Humidity | Pressure | Rain* | Wind** | Luminosity | Snow |
|---|---|---|---|---|---|---|---|
| 1777850720 | 20° C | 55% | 1016.4 hPa | 0 mm | - | 45 W/m² | - |
| 1777850418 | 20.56° C | 47% | 1016.6 hPa | 0 mm | - | 50 W/m² | - |
| 1777850116 | 21.11° C | 47% | 1016.6 hPa | 0 mm | - | 50 W/m² | - |
| 1777849812 | 21.11° C | 46% | 1016.6 hPa | 0 mm | - | 147 W/m² | - |
| 1777849509 | 21.11° C | 42% | 1016.8 hPa | 0 mm | - | 158 W/m² | - |
| 1777849206 | 21.67° C | 42% | 1016.9 hPa | 0 mm | - | 179 W/m² | - |
| 1777848903 | 22.22° C | 42% | 1016.8 hPa | 0 mm | - | 197 W/m² | - |
| 1777848598 | 21.67° C | 40% | 1016.8 hPa | 0 mm | - | 217 W/m² | - |
| 1777848295 | 21.67° C | 41% | 1016.9 hPa | 0 mm | - | 238 W/m² | - |
| 1777847993 | 21.67° C | 41% | 1016.8 hPa | 0 mm | - | 251 W/m² | - |
| 1777847691 | 21.67° C | 41% | 1016.7 hPa | 0 mm | - | 266 W/m² | - |
| 1777847386 | 21.67° C | 40% | 1016.5 hPa | 0 mm | - | 274 W/m² | - |
| 1777847085 | 21.67° C | 40% | 1016.7 hPa | 0 mm | - | 289 W/m² | - |
| 1777846783 | 22.22° C | 40% | 1016.8 hPa | 0 mm | - | 329 W/m² | - |
| 1777846480 | 22.78° C | 41% | 1016.6 hPa | 0 mm | - | 339 W/m² | - |
| 1777846172 | 22.22° C | 44% | 1016.7 hPa | 0 mm | - | 363 W/m² | - |
| 1777845868 | 22.22° C | 39% | 1016.9 hPa | 0 mm | - | 378 W/m² | - |
| 1777845565 | 22.22° C | 41% | 1016.8 hPa | 0 mm | - | 393 W/m² | - |
| 1777845262 | 22.22° C | 40% | 1016.8 hPa | 0 mm | - | 354 W/m² | - |
| 1777844960 | 22.22° C | 41% | 1017.1 hPa | 0 mm | - | 402 W/m² | - |
| 1777844657 | 21.67° C | 41% | 1017 hPa | 0 mm | - | 420 W/m² | - |
| 1777844355 | 22.22° C | 39% | 1016.9 hPa | 0 mm | - | 447 W/m² | - |
| 1777844053 | 21.67° C | 42% | 1017.1 hPa | 0 mm | - | 471 W/m² | - |
| 1777843749 | 22.22° C | 41% | 1017.2 hPa | 0 mm | - | 471 W/m² | - |
| 1777843447 | 21.67° C | 40% | 1017.3 hPa | 0 mm | - | 491 W/m² | - |
* Rain latest hour (hover to see other rain measurements)
** Current wind speed in m/s (hover to see current wind gust speed)